Location: Kellogg
(38.0159°N, 90.0546°W)
Time: 08:33:34
(UTC+00:00)

Altair - Pass Details

Date: 22 September 2024
Orbit: 1501 x 1682 km, 47.2° (Epoch: 07 October)

Event Time Altitude Azimuth Distance (km) Brightness Sun altitude
Rises 14:59:09 0° 293° (WNW) 4,937 9.7 34.9°
Reaches altitude 10° 15:03:20 10° 279° (W) 3,940 9.3 35.6°
Maximum altitude 15:10:14 21° 235° (SW) 3,108 9.1 36.7°
Drops below altitude 10° 15:17:03 10° 191° (S) 3,866 10.0 37.8°
Sets 15:21:10 0° 176° (S) 4,821 10.6 38.4°
